Simultaneous Nadir Overpasses (SNOs) Predictions

Prediction of SNOs between GOES-17 and LANDSAT-8 Satellite Orbit:

Table of predicted SNOs for the next 14.0 days since TLE Epoch: 4/13/2024
Index Date Time (GOES-17) GOES-17 Lat,Lon LANDSAT-8 Lat,Lon Distance(km) Time Diff (sec)
1 04/14/2024 04:54:24 0.00,-104.69 0.76,-101.09 408.87 80
2 04/14/2024 17:15:39 0.00,-104.68 0.35,-106.25 178.09 80
3 04/16/2024 17:06:06 0.00,-104.69 -0.28,-103.29 158.77 80
4 04/17/2024 05:27:30 -0.00,-104.70 -0.81,-108.48 430.52 80
5 04/18/2024 16:53:53 0.00,-104.69 -0.92,-100.33 496.06 80
6 04/19/2024 05:15:17 -0.00,-104.70 -0.16,-105.53 93.14 80
7 04/21/2024 05:00:23 -0.00,-104.71 0.44,-102.56 244.71 80
8 04/21/2024 17:21:38 0.00,-104.71 0.65,-107.72 342.27 80
9 04/23/2024 17:09:24 0.01,-104.72 0.03,-104.75 4.41 80
10 04/25/2024 16:59:50 0.01,-104.73 -0.61,-101.79 333.59 80
11 04/26/2024 05:21:13 -0.01,-104.74 -0.51,-106.98 255.35 80
